FFT1517 KPHL-KRDU

Flight info

Callsign FFT1517
Flight time 0h 57m
Altitude 32000
Route OOD TEBEE HAYDO TRPOD TAQLE3
Aircraft A20N/M-SDE2E3FGHIRWXY/LB1

Departure

Time 2026-05-04 13:57
Airport Philadelphia International Airport (KPHL)

Arrival

Time 2026-05-04 14:54
Airport Raleigh-Durham International Airport (KRDU)
Time Latitude Longitude Altitude Speed Heading
2026-05-04 13:33 39.87894 -75.23850 12 ft 0 kts 190°
2026-05-04 13:44 39.87897 -75.23850 13 ft 2 kts 191°
2026-05-04 13:44 39.87911 -75.23843 13 ft 2 kts 212°
2026-05-04 13:44 39.87923 -75.23831 13 ft 2 kts 229°
2026-05-04 13:44 39.87933 -75.23816 13 ft 2 kts 227°
2026-05-04 13:45 39.87943 -75.23801 13 ft 2 kts 228°
2026-05-04 13:45 39.87953 -75.23787 13 ft 2 kts 227°
2026-05-04 13:45 39.87957 -75.23782 13 ft 0 kts 227°
2026-05-04 13:45 39.87940 -75.23792 13 ft 3 kts 185°
2026-05-04 13:46 39.87921 -75.23780 13 ft 3 kts 129°
2026-05-04 13:46 39.87916 -75.23749 13 ft 4 kts 104°
2026-05-04 13:46 39.87909 -75.23724 13 ft 0 kts 109°
2026-05-04 13:46 39.87909 -75.23723 13 ft 0 kts 110°
2026-05-04 13:50 39.87906 -75.23715 13 ft 2 kts 110°
2026-05-04 13:50 39.87899 -75.23686 13 ft 4 kts 110°
2026-05-04 13:50 39.87885 -75.23637 13 ft 6 kts 109°
2026-05-04 13:51 39.87869 -75.23576 13 ft 7 kts 108°
2026-05-04 13:51 39.87850 -75.23503 14 ft 8 kts 110°
2026-05-04 13:51 39.87814 -75.23434 14 ft 9 kts 141°
2026-05-04 13:51 39.87754 -75.23387 14 ft 10 kts 158°
2026-05-04 13:52 39.87607 -75.23313 14 ft 12 kts 159°
2026-05-04 13:52 39.87527 -75.23274 14 ft 12 kts 160°
2026-05-04 13:52 39.87444 -75.23234 15 ft 13 kts 160°
2026-05-04 13:53 39.87357 -75.23191 15 ft 13 kts 158°
2026-05-04 13:53 39.87268 -75.23147 15 ft 13 kts 160°
2026-05-04 13:53 39.87187 -75.23106 15 ft 8 kts 159°
2026-05-04 13:54 39.87089 -75.23197 15 ft 10 kts 224°
2026-05-04 13:54 39.87049 -75.23279 15 ft 11 kts 245°
2026-05-04 13:54 39.87001 -75.23415 15 ft 0 kts 204°
2026-05-04 13:55 39.86983 -75.23418 15 ft 4 kts 181°
2026-05-04 13:56 39.86941 -75.23408 15 ft 7 kts 173°
2026-05-04 13:56 39.86899 -75.23441 15 ft 8 kts 245°
2026-05-04 13:56 39.86751 -75.24155 16 ft 103 kts 255°
2026-05-04 13:57 39.86519 -75.25327 69 ft 155 kts 253°
2026-05-04 13:57 39.86241 -75.26702 729 ft 155 kts 250°
2026-05-04 13:58 39.84478 -75.30299 2797 ft 171 kts 234°
2026-05-04 13:58 39.82146 -75.31737 3739 ft 224 kts 178°
2026-05-04 13:58 39.80519 -75.31313 4349 ft 245 kts 170°
2026-05-04 13:59 39.78818 -75.30787 4955 ft 260 kts 178°
2026-05-04 13:59 39.77003 -75.30664 5806 ft 264 kts 185°
2026-05-04 13:59 39.73296 -75.30656 7619 ft 273 kts 184°
2026-05-04 14:00 39.71386 -75.30606 8470 ft 279 kts 184°
2026-05-04 14:00 39.67454 -75.30440 10119 ft 289 kts 183°
2026-05-04 14:00 39.65409 -75.30349 10761 ft 300 kts 184°
2026-05-04 14:01 39.63275 -75.30431 11199 ft 316 kts 189°
2026-05-04 14:01 39.61049 -75.30759 11795 ft 326 kts 192°
2026-05-04 14:01 39.56522 -75.31592 13314 ft 335 kts 193°
2026-05-04 14:02 39.54180 -75.32021 14035 ft 341 kts 193°
2026-05-04 14:02 39.51825 -75.32448 14787 ft 345 kts 193°
2026-05-04 14:02 39.49438 -75.32882 15526 ft 349 kts 193°
2026-05-04 14:02 39.47026 -75.33318 16248 ft 353 kts 193°
2026-05-04 14:03 39.44593 -75.33760 16962 ft 356 kts 193°
2026-05-04 14:03 39.42150 -75.34202 17652 ft 360 kts 193°
2026-05-04 14:03 39.39668 -75.34650 18334 ft 364 kts 193°
2026-05-04 14:03 39.37127 -75.35107 19017 ft 367 kts 193°
2026-05-04 14:04 39.32027 -75.36025 20304 ft 375 kts 193°
2026-05-04 14:04 39.29446 -75.36490 20936 ft 378 kts 193°
2026-05-04 14:04 39.26843 -75.36959 21534 ft 382 kts 193°
2026-05-04 14:05 39.21526 -75.37914 22702 ft 390 kts 193°
2026-05-04 14:05 39.18818 -75.38400 23284 ft 393 kts 193°
2026-05-04 14:05 39.16087 -75.38890 23846 ft 397 kts 193°
2026-05-04 14:06 39.13365 -75.39375 24389 ft 400 kts 193°
2026-05-04 14:06 39.10593 -75.39869 24929 ft 402 kts 193°
2026-05-04 14:06 39.07830 -75.40362 25448 ft 405 kts 193°
2026-05-04 14:06 39.05029 -75.40861 25959 ft 407 kts 193°
2026-05-04 14:07 39.02234 -75.41357 26433 ft 410 kts 193°
2026-05-04 14:07 38.99403 -75.41861 26897 ft 413 kts 193°
2026-05-04 14:07 38.96527 -75.42371 27372 ft 414 kts 193°
2026-05-04 14:07 38.93659 -75.42879 27826 ft 416 kts 193°
2026-05-04 14:08 38.90789 -75.43388 28272 ft 418 kts 194°
2026-05-04 14:08 38.87887 -75.43903 28708 ft 420 kts 194°
2026-05-04 14:08 38.85013 -75.44409 29235 ft 419 kts 194°
2026-05-04 14:08 38.82148 -75.44915 29806 ft 416 kts 194°
2026-05-04 14:09 38.76452 -75.45918 30844 ft 413 kts 194°
2026-05-04 14:09 38.73580 -75.46426 31191 ft 414 kts 194°
2026-05-04 14:10 38.67882 -75.47433 31814 ft 417 kts 194°
2026-05-04 14:10 38.64982 -75.47944 32025 ft 419 kts 194°
2026-05-04 14:10 38.62104 -75.48452 32038 ft 420 kts 194°
2026-05-04 14:11 38.56288 -75.49473 32039 ft 420 kts 194°
2026-05-04 14:11 38.47580 -75.50999 32041 ft 420 kts 194°
2026-05-04 14:12 38.41823 -75.52007 32045 ft 420 kts 195°
2026-05-04 14:13 38.33342 -75.54322 32040 ft 411 kts 204°
2026-05-04 14:13 38.28028 -75.56855 32047 ft 406 kts 211°
2026-05-04 14:14 38.22912 -75.59874 32047 ft 404 kts 212°
2026-05-04 14:14 38.15243 -75.64404 32043 ft 404 kts 212°
2026-05-04 14:15 38.05016 -75.70425 32044 ft 405 kts 211°
2026-05-04 14:16 37.97329 -75.74934 32044 ft 406 kts 211°
2026-05-04 14:17 37.89607 -75.79454 32052 ft 406 kts 211°
2026-05-04 14:18 37.81947 -75.83926 32050 ft 405 kts 211°
2026-05-04 14:19 37.71695 -75.89899 32054 ft 406 kts 212°
2026-05-04 14:19 37.66603 -75.92933 32058 ft 403 kts 215°
2026-05-04 14:20 37.61872 -75.96677 32057 ft 396 kts 223°
2026-05-04 14:20 37.57738 -76.01152 31758 ft 389 kts 231°
2026-05-04 14:21 37.54213 -76.06210 31301 ft 380 kts 237°
2026-05-04 14:21 37.52554 -76.08782 31072 ft 378 kts 237°
2026-05-04 14:21 37.50903 -76.11350 30842 ft 376 kts 237°
2026-05-04 14:21 37.49253 -76.13912 30588 ft 376 kts 237°
2026-05-04 14:22 37.47612 -76.16459 30318 ft 377 kts 237°
2026-05-04 14:22 37.45958 -76.19024 29902 ft 378 kts 237°
2026-05-04 14:22 37.44304 -76.21582 29422 ft 379 kts 237°
2026-05-04 14:22 37.42639 -76.24152 28939 ft 380 kts 237°
2026-05-04 14:23 37.39274 -76.29350 27915 ft 380 kts 237°
2026-05-04 14:23 37.37622 -76.31895 27406 ft 377 kts 237°
2026-05-04 14:23 37.35974 -76.34432 26899 ft 374 kts 237°
2026-05-04 14:24 37.34348 -76.36935 26394 ft 371 kts 237°
2026-05-04 14:24 37.32722 -76.39436 25887 ft 369 kts 237°
2026-05-04 14:24 37.31096 -76.41936 25382 ft 367 kts 237°
2026-05-04 14:24 37.29463 -76.44449 24873 ft 363 kts 237°
2026-05-04 14:25 37.27877 -76.46880 24413 ft 359 kts 237°
2026-05-04 14:25 37.24741 -76.51719 23841 ft 358 kts 237°
2026-05-04 14:25 37.23176 -76.54167 23587 ft 357 kts 237°
2026-05-04 14:26 37.21569 -76.56680 23339 ft 356 kts 237°
2026-05-04 14:26 37.20033 -76.59081 23101 ft 355 kts 237°
2026-05-04 14:26 37.18480 -76.61504 22855 ft 354 kts 237°
2026-05-04 14:26 37.16918 -76.63937 22608 ft 353 kts 237°
2026-05-04 14:27 37.15388 -76.66318 22374 ft 351 kts 237°
2026-05-04 14:27 37.13849 -76.68713 22136 ft 350 kts 237°
2026-05-04 14:27 37.12321 -76.71090 22059 ft 349 kts 237°
2026-05-04 14:27 37.10804 -76.73447 22056 ft 350 kts 237°
2026-05-04 14:28 37.09288 -76.75802 22058 ft 349 kts 237°
2026-05-04 14:28 37.07763 -76.78170 22055 ft 350 kts 237°
2026-05-04 14:28 37.06227 -76.80552 22053 ft 350 kts 237°
2026-05-04 14:28 37.04701 -76.82916 22050 ft 349 kts 237°
2026-05-04 14:29 37.01654 -76.87630 22053 ft 349 kts 237°
2026-05-04 14:29 36.98594 -76.92358 22055 ft 349 kts 237°
2026-05-04 14:30 36.97053 -76.94733 22053 ft 349 kts 237°
2026-05-04 14:30 36.95535 -76.97070 22054 ft 350 kts 237°
2026-05-04 14:30 36.92459 -77.01801 22050 ft 350 kts 237°
2026-05-04 14:31 36.90939 -77.04137 22055 ft 349 kts 237°
2026-05-04 14:31 36.87843 -77.08892 22042 ft 350 kts 237°
2026-05-04 14:32 36.84774 -77.13594 22049 ft 350 kts 237°
2026-05-04 14:32 36.83236 -77.15948 22044 ft 350 kts 237°
2026-05-04 14:32 36.81697 -77.18299 22041 ft 350 kts 237°
2026-05-04 14:32 36.80157 -77.20652 22049 ft 350 kts 237°
2026-05-04 14:33 36.78623 -77.22994 22048 ft 351 kts 237°
2026-05-04 14:33 36.77070 -77.25322 22054 ft 350 kts 236°
2026-05-04 14:33 36.75498 -77.27659 22055 ft 350 kts 236°
2026-05-04 14:33 36.73940 -77.29975 22051 ft 350 kts 236°
2026-05-04 14:34 36.72374 -77.32301 22055 ft 350 kts 236°
2026-05-04 14:34 36.70819 -77.34613 22058 ft 351 kts 237°
2026-05-04 14:34 36.69237 -77.36964 22061 ft 350 kts 236°
2026-05-04 14:34 36.67683 -77.39273 22062 ft 350 kts 236°
2026-05-04 14:35 36.66116 -77.41599 22061 ft 351 kts 236°
2026-05-04 14:35 36.64450 -77.44070 22060 ft 350 kts 236°
2026-05-04 14:35 36.62838 -77.46459 22063 ft 350 kts 236°
2026-05-04 14:35 36.61167 -77.48935 22061 ft 350 kts 237°
2026-05-04 14:36 36.59436 -77.51496 22063 ft 350 kts 236°
2026-05-04 14:36 36.57726 -77.54026 22064 ft 351 kts 237°
2026-05-04 14:36 36.56045 -77.56509 22041 ft 352 kts 237°
2026-05-04 14:36 36.54440 -77.58883 21775 ft 350 kts 237°
2026-05-04 14:37 36.52857 -77.61218 21509 ft 349 kts 237°
2026-05-04 14:37 36.51292 -77.63525 21191 ft 348 kts 236°
2026-05-04 14:37 36.49760 -77.65786 20772 ft 345 kts 236°
2026-05-04 14:37 36.48211 -77.68067 20378 ft 343 kts 236°
2026-05-04 14:38 36.46662 -77.70347 19951 ft 342 kts 236°
2026-05-04 14:38 36.45148 -77.72575 19495 ft 341 kts 236°
2026-05-04 14:38 36.43621 -77.74819 18952 ft 340 kts 236°
2026-05-04 14:38 36.42097 -77.77060 18410 ft 339 kts 236°
2026-05-04 14:39 36.40570 -77.79301 17870 ft 338 kts 236°
2026-05-04 14:39 36.39064 -77.81513 17347 ft 336 kts 235°
2026-05-04 14:39 36.37552 -77.83730 16802 ft 335 kts 235°
2026-05-04 14:40 36.34565 -77.88103 15754 ft 333 kts 235°
2026-05-04 14:40 36.33058 -77.90311 15209 ft 331 kts 235°
2026-05-04 14:40 36.31580 -77.92474 14676 ft 330 kts 235°
2026-05-04 14:40 36.30108 -77.94625 14153 ft 329 kts 235°
2026-05-04 14:41 36.28625 -77.96790 13633 ft 327 kts 235°
2026-05-04 14:41 36.27166 -77.98918 13225 ft 322 kts 234°
2026-05-04 14:41 36.24331 -78.03064 12479 ft 310 kts 236°
2026-05-04 14:42 36.22110 -78.07546 11728 ft 299 kts 248°
2026-05-04 14:42 36.21182 -78.10035 11372 ft 293 kts 249°
2026-05-04 14:42 36.20389 -78.12319 11072 ft 285 kts 251°
2026-05-04 14:43 36.19631 -78.14593 10770 ft 279 kts 251°
2026-05-04 14:43 36.18885 -78.16833 10466 ft 273 kts 251°
2026-05-04 14:43 36.18142 -78.19055 10160 ft 268 kts 250°
2026-05-04 14:43 36.17428 -78.21187 9806 ft 265 kts 250°
2026-05-04 14:44 36.16721 -78.23297 9403 ft 264 kts 250°
2026-05-04 14:44 36.16007 -78.25425 9007 ft 263 kts 250°
2026-05-04 14:44 36.15333 -78.27535 8621 ft 261 kts 253°
2026-05-04 14:44 36.14814 -78.29664 8234 ft 259 kts 258°
2026-05-04 14:45 36.14395 -78.31924 7816 ft 257 kts 259°
2026-05-04 14:45 36.14006 -78.34103 7422 ft 256 kts 259°
2026-05-04 14:45 36.13623 -78.36239 7020 ft 256 kts 259°
2026-05-04 14:45 36.13238 -78.38393 6634 ft 255 kts 258°
2026-05-04 14:46 36.12854 -78.40540 6232 ft 254 kts 258°
2026-05-04 14:46 36.12476 -78.42639 5985 ft 247 kts 258°
2026-05-04 14:46 36.11936 -78.44674 5976 ft 231 kts 247°
2026-05-04 14:46 36.11116 -78.46435 5972 ft 216 kts 237°
2026-05-04 14:47 36.10184 -78.48066 5972 ft 212 kts 240°
2026-05-04 14:47 36.09356 -78.49810 5880 ft 212 kts 243°
2026-05-04 14:47 36.08605 -78.51470 5774 ft 212 kts 243°
2026-05-04 14:47 36.07885 -78.53088 5630 ft 212 kts 245°
2026-05-04 14:48 36.07222 -78.54747 5349 ft 212 kts 245°
2026-05-04 14:48 36.06462 -78.56316 5046 ft 213 kts 236°
2026-05-04 14:48 36.05528 -78.57735 4760 ft 212 kts 231°
2026-05-04 14:48 36.04525 -78.59083 4471 ft 212 kts 229°
2026-05-04 14:49 36.03490 -78.60403 4180 ft 210 kts 228°
2026-05-04 14:49 36.02450 -78.61699 3898 ft 208 kts 227°
2026-05-04 14:49 36.01404 -78.62987 3609 ft 200 kts 227°
2026-05-04 14:49 36.00405 -78.64214 3341 ft 191 kts 227°
2026-05-04 14:50 35.99487 -78.65342 3187 ft 175 kts 226°
2026-05-04 14:50 35.98647 -78.66374 2939 ft 165 kts 226°
2026-05-04 14:50 35.97861 -78.67343 2713 ft 158 kts 226°
2026-05-04 14:50 35.97084 -78.68301 2488 ft 151 kts 226°
2026-05-04 14:51 35.96358 -78.69196 2297 ft 140 kts 226°
2026-05-04 14:51 35.95675 -78.70037 2122 ft 135 kts 226°
2026-05-04 14:51 35.95012 -78.70855 1937 ft 132 kts 226°
2026-05-04 14:51 35.94362 -78.71658 1769 ft 131 kts 226°
2026-05-04 14:52 35.93717 -78.72453 1603 ft 130 kts 226°
2026-05-04 14:52 35.93077 -78.73242 1431 ft 130 kts 226°
2026-05-04 14:52 35.92426 -78.74046 1257 ft 130 kts 226°
2026-05-04 14:52 35.91782 -78.74841 1083 ft 129 kts 226°
2026-05-04 14:53 35.91155 -78.75626 910 ft 129 kts 225°
2026-05-04 14:53 35.90511 -78.76407 736 ft 128 kts 225°
2026-05-04 14:53 35.89880 -78.77187 575 ft 128 kts 226°
2026-05-04 14:53 35.89250 -78.77965 423 ft 126 kts 225°
2026-05-04 14:54 35.88687 -78.78661 401 ft 94 kts 224°
2026-05-04 14:54 35.88354 -78.79071 397 ft 50 kts 226°
2026-05-04 14:54 35.88125 -78.79356 391 ft 39 kts 226°
2026-05-04 14:54 35.87992 -78.79478 388 ft 13 kts 193°
2026-05-04 14:55 35.87913 -78.79457 390 ft 10 kts 178°
2026-05-04 14:55 35.87848 -78.79507 388 ft 12 kts 229°
2026-05-04 14:55 35.87779 -78.79592 385 ft 15 kts 223°
2026-05-04 14:55 35.87701 -78.79686 384 ft 16 kts 225°
2026-05-04 14:56 35.87618 -78.79788 381 ft 14 kts 225°
2026-05-04 14:56 35.87554 -78.79820 380 ft 9 kts 157°
2026-05-04 14:56 35.87503 -78.79771 381 ft 9 kts 135°
2026-05-04 14:56 35.87482 -78.79707 383 ft 6 kts 80°
2026-05-04 14:57 35.87496 -78.79669 385 ft 3 kts 57°
2026-05-04 14:57 35.87498 -78.79665 385 ft 0 kts 57°